Regional Weather Roundup
Issued by NWS Charleston, SC

Current Version | Previous Version | Graphics & Text | Print | Product List | Glossary On
Versions: 1 2 3 4 5 6 7 8 9 10 11 12 13 14 15 16 17 18 19 20 21 22 23 24 25 26 27 28 29 30 31 32 33 34 35 36 37 38 39 40 41 42 43 44 45 46 47 48 49 50
000
ASUS42 KCHS 280913
RWRCHS

REGIONAL WEATHER ROUNDUP
NATIONAL WEATHER SERVICE CHARLESTON SC
500 AM EDT WED SEP 28 2016

NOTE: "FAIR" INDICATES FEW OR NO CLOUDS BELOW 12,000 FEET WITH NO
SIGNIFICANT WEATHER AND/OR OBSTRUCTIONS TO VISIBILITY.

NOT ALL STATIONS ARE QUALITY CONTROLLED. USE DATA WITH CAUTION...
ESPECIALLY DEWPOINT OBSERVATIONS.

SCZ027-030-031-034>040-042>050-281000-
...SOUTHEAST SOUTH CAROLINA...

CITY           SKY/WX    TMP DP  RH WIND       PRES   REMARKS
N CHARLESTON   PTCLDY    71  69  93 CALM      29.92S
WATERFRONT PRK   N/A     75  73  93 VRB2      29.90S
MOUNT PLEASANT FAIR      70  70 100 CALM      29.93R
JOHNS ISLAND   FAIR      72  70  94 CALM      29.93R
PINOPOLIS        N/A     75  73  94 SW6       29.84S
MONCKS CORNER  FAIR      68  66  94 CALM      29.92S
SUMMERVILLE    FAIR      68  68 100 CALM      29.93S
BEAUFORT MCAS  CLEAR     72  70  93 CALM      29.93R
BEAUFORT ARPT  FAIR      72  70  94 CALM      29.92R
HILTON HEAD IS CLEAR     72  72 100 CALM      29.93S
WALTERBORO     MOSUNNY   70  70 100 CALM      29.93S
ALLENDALE      CLOUDY    72  70  94 S5        29.91S

...SOUTHERN MIDLANDS AND PEE DEE...

CITY           SKY/WX    TMP DP  RH WIND       PRES   REMARKS
GEORGETOWN     FAIR      68  68 100 CALM      29.93S
KINGSTREE      FAIR      68  64  88 CALM      29.91F
ORANGEBURG     CLEAR     70  70 100 SE5       29.92F FOG
BARNWELL       NOT AVBL
AIKEN          FAIR      68  63  83 E3        29.95F
MANNING        FAIR      72  70  94 SW3       29.91F
COLUMBIA       PTCLDY    72  66  81 CALM      29.90F
SUMTER         CLEAR     71  69  94 E1        29.89S
FLORENCE       CLEAR     71  69  93 CALM      29.92S
MYRTLE BEACH   CLEAR     70  63  78 W3        29.94S
N MYRTLE BEACH CLEAR     70  69  97 CALM      29.91S

$$

GAZ063-065-086>088-099>101-113>116-118-119-134>141-150-281000-
...SOUTHEAST GEORGIA...

CITY           SKY/WX    TMP DP  RH WIND       PRES   REMARKS
SAVANNAH ARPT  CLEAR     73  70  90 SW7       29.93R
HUNTER AAF     CLEAR     73  73 100 SW3       29.90S
FORT STEWART   CLEAR     70  68  93 CALM      29.90S
STATESBORO     CLEAR     72  71  98 CALM      29.92S
SYLVANIA       NOT AVBL
CLAXTON        FAIR      69  69 100 CALM      29.92S

...CSRA...CENTRAL AND FAR SOUTHEAST GEORGIA...

CITY           SKY/WX    TMP DP  RH WIND       PRES   REMARKS
THOMSON        CLOUDY    70  70  99 CALM      29.95S
AUGUSTA-BUSH   PTCLDY    67  66  97 S3        29.90F
AUGUSTA-DANIEL CLOUDY    72  64  76 SE5       29.91F
SWAINSBORO     PTSUNNY   70  68  94 CALM      29.92S
VIDALIA        CLEAR     70  70 100 CALM      29.92S
EASTMAN        FAIR      70  70  99 CALM      29.94S
HAZLEHURST     FAIR      72  72 100 CALM      29.92R
ALMA           CLEAR     67  67 100 CALM      29.92S FOG
WAYCROSS       CLEAR     71  71 100 CALM      29.93R
JESUP          FAIR      70  70 100 CALM      29.93S
BAXLEY         FAIR      70  70 100 CALM      29.92S FOG
BRUNSWICK      FOG       72  72 100 CALM      29.94R VSB 3/4
SAINT SIMONS   CLEAR     76  73  91 SW6       29.93R

$$

SCZ027-028-034-036>038-045-046-048>050-GAZ119-141-281000-
...LAKE AND SUPPLEMENTAL COASTAL OBSERVATIONS...

STATION/POSITION TIME  TEMP    WIND        PRES    WAVE   SWELL
                       AIR SEA DIR/SP/G            HT/PER HT/PER/DIR
                 (UTC) (F)     (DEG/KT/KT) (MB)    (FT/S) (FT/S/D)
WINYAH BAY       NOT AVBL
LAKE MURRAY      0820   72     250/  4/  5 1012.9R
ACE BASIN NERRS  0745   72        CALM     1013.0
FORT PULASKI     0848   76 81  230/  2/  4 1013.7R
SAPELO ISLAND    0800   77     230/  5     1013.0

$$

ANZ835-935-AMZ111-154-330-350-352-354-370-450-454-472-281000-
...C-MAN AND BUOY OBSERVATIONS...

STATION/POSITION TIME  TEMP    WIND        PRES    WAVE   SWELL
                       AIR SEA DIR/SP/G            HT/PER HT/PER/DIR
                 (UTC) (F)     (DEG/KT/KT) (MB)    (FT/S) (FT/S/D)
BUOY 41004       0850   79 82  310/  2/  4 1012.8R   3/11   3/110/11
BUOY 41008       0850   81 82  200/ 10/ 12 1013.1S   2/ 8   2/ 60/ 8
FOLLY BEACH CMAN 0800   76     280/  3/  3 1013.4R
CAPERS NEARSHORE 0808   79 81  240/  6/  6 1012.8F
FRIPP NEARSHORE  0808   79 81  230/  8/ 10 1013.1F


STATION/POSITION TIME  TEMP    WIND        PRES    WAVE   SWELL
                       AIR SEA DIR/SP/G            HT/PER HT/PER/DIR
                 (UTC) (F)     (DEG/KT/KT) (MB)    (FT/S) (FT/S/D)
5E ST. MARYS GA  NOT AVBL
FRYING PAN BUOY  0850   79 82  240/  2/  4 1012.5F   4/11   3/100/11
BUOY 41025       0850   77 84  350/ 10/ 12 1012.0F   5/ 7   5/110/ 7
CAPE LOOKOUT NC  0800   74     350/  4/  5 1012.9F
BUOY 41002       0850   79 83  190/ 10/ 14 1013.4R   5/12   3/ 40/12
BUOY 41010       NOT AVBL
ST AUGUSTINE FL  0900   74 84  260/  7/  9 1014.7R


$$




USA.gov is the U.S. government's official web portal to all federal, state and local government web resources and services.